Location: Albany
(35.0170°S, 117.8920°E)
Time: 02:05:18
(UTC+08:00)

Vanguard 1 - Pass Details

Date: 31 January 2021
Orbit: 649 x 3833 km, 34.2° (Epoch: 25 February)

Event Time Altitude Azimuth Distance (km) Brightness Sun altitude
Rises 06:26:48 0° 278° (W) 2,991 11.9 10.9°
Reaches altitude 10° 06:30:41 10° 314° (NW) 2,243 11.5 11.6°
Maximum altitude 06:32:18 11° 333° (NNW) 2,256 11.6 12.0°
Drops below altitude 10° 06:34:05 10° 352° (N) 2,505 12.0 12.3°
Sets 06:39:20 0° 23° (NNE) 4,005 13.4 13.4°
